STARLINK-32333, 61626

Orbit data source: Space-Track

STARLINK-32333, 61626 is a payload satellite owned by SpaceX/Seattle (US) in LEO that was launched on Wed, 23 Oct 2024 UTC via an FALCON 9 launch vehicle from the Air Force Eastern Test Range (AFETR). Payload-class satellites include a variety of spacecraft equipped with specific instruments for various scientific and technological missions. These include communications satellites like Starlink; space stations such as the ISS; scientific satellites like the Hubble; Earth observation satellites from companies like Planet Labs, Umbra, and HawkEye 360; GPS; miniature CubeSats for education and research; and military/defense satellites.

Loading next visibility...
Identifier
61626, 2024-191F
Orbit
LEO
Last TLE update
5 hours ago
Origin
Manufacturer
SpaceX/Seattle
Mission
Operational Commercial Communications
Bus & Motor
STARLINK V2M, Unknown motor
Mass
730 kg wet, ~700 kg dry
Launch date (UTC)
2024-10-23 (9 months ago)
Launch vehicle
FALCON 9
Launch site
Air Force Eastern Test Range (AFETR)
Object type
Payload
Rocket body
Debris
Shape & HBR
Box + 2 Pan, 14.5 m
Radar Cross Section
36.964 m², Large (>1 m²)

Expand to show TLE details & history

TLE from 5 hours ago
0 STARLINK-32333
1 61626U 24191F   25199.53723129 -.00008744  00000-0 -30822-3 0  9999
2 61626  43.0023  40.5287 0000649 325.9454  34.1356 15.27620280 42384
Epoch: 2025-07-18T12:53Z
TLE epoch observation values (Epoch: 2025-07-18T12:53:36.783Z)
Latitude
-0.00001°
Longitude
-89.46185°
Altitude
482.336 km
Speed
7.626 km/s
True Right ascension
02h 42m 06s
True Declination
0° 00' 00"
Sunlit
Object was in daylight at epoch
Visualization orbit readout
Latitude
-27.00305°
Longitude
-123.44364°
Altitude
489.379 km
Speed
7.621 km/s
Apparent Right ascension
21h 45m 59s
Apparent Declination
-43° 20' 45"
Sunlit
Object is in full shadow
Visualization observer readout
Local Sidereal Time
06:11:50
Azimuth
246.927° WSW
Elevation
-50.527°
Doppler factor
1
Orbital elements
Apogee altitude
485.319 km
Perigee altitude
484.428 km
Semi-major axis
6,863.01 km
Eccentricity
0.00006
Inclination
43.0023°
RAAN
40.5287°
Arg. of periapsis
325.9454°
True anomaly
34.13977°
Mean anomaly
34.1356°
Eccentric anomaly
34.13769°
Mean motion
3.81743 °/min
Orbital period
94.3 mins
BSTAR
-0.00030822
Loading maneuver chart data...
Loading SW <> Apogee altitude chart data...
Loading historical data...
Loading historical data...
Loading historical data...
Loading historical data...
Loading historical data...
Loading historical data...
Loading historical data...
|